Theta_e
341 341 341 340 340 341 339 338 338 338 337 337 336 335 335 336 336 335 335 339 341 341 342 342 341 341 341 341 340 340 340 340 340 339 337 335 336 337 337 338 338 339 338 339 340 340 339 338 338 338 339 339 337 337 337 337 339 337 336 337 337 337 336 335 334 333 333 333 334 334 336 335 335 335 334 334 334 334 333 333 332 331 332 331 330
340 341 341 340 341 341 339 338 338 338 337 337 336 336 336 337 337 337 337 338 339 339 340 340 339 339 340 341 340 340 339 338 336 334 333 335 337 337 337 337 337 338 338 338 338 338 338 338 338 338 339 337 336 335 335 336 338 337 337 337 337 336 334 331 331 332 332 332 330 329 330 331 333 333 333 333 333 333 332 332 331 330 331 331 331
341 341 340 339 340 340 339 338 338 337 336 337 336 336 336 336 337 337 338 338 339 339 339 339 339 338 339 340 339 338 335 332 332 333 335 337 337 337 337 336 336 337 338 338 337 337 337 338 337 338 338 337 336 336 336 336 337 337 337 337 336 334 329 327 330 333 333 331 328 326 325 327 331 332 331 332 332 331 330 330 329 329 330 330 330
341 341 340 340 340 339 339 339 338 336 336 338 336 336 335 335 337 337 338 339 339 338 339 340 339 338 339 339 337 336 334 332 335 337 338 337 336 336 337 335 336 338 338 338 338 337 337 337 337 339 339 337 336 336 336 336 336 336 336 335 333 329 325 327 331 334 334 333 332 331 328 326 330 331 331 331 331 330 329 327 328 328 329 329 329
339 341 341 340 339 339 340 339 338 337 337 337 335 334 333 334 334 336 336 336 337 337 338 338 338 338 337 337 336 336 336 336 336 337 338 337 337 336 336 336 337 337 338 339 339 338 338 337 337 339 339 335 333 332 331 332 333 333 332 329 326 323 324 328 332 334 335 335 334 333 330 326 329 331 331 330 331 329 327 326 327 327 327 327 327
339 340 340 339 339 339 339 339 338 338 337 335 334 333 333 332 332 333 333 334 336 337 337 336 337 337 337 336 335 336 335 334 333 335 337 337 336 336 335 335 336 337 338 339 340 339 339 338 339 339 335 333 331 329 328 328 328 327 326 323 321 323 327 329 330 333 335 336 335 334 332 330 330 331 331 330 330 330 327 326 325 326 326 327 327
339 340 340 339 339 338 338 339 339 338 336 334 333 334 334 332 331 332 333 335 336 337 337 336 338 338 338 336 335 335 335 334 332 333 336 336 335 335 335 336 336 338 339 339 340 339 339 339 339 337 335 334 334 332 331 330 328 325 324 323 324 327 329 329 330 331 332 335 336 335 333 332 331 331 331 331 330 330 329 327 326 327 328 328 327
339 340 339 339 338 338 339 338 339 337 336 334 332 333 333 333 332 332 333 334 334 337 337 337 338 337 337 336 336 337 337 336 332 333 336 336 336 336 335 336 337 338 339 339 339 339 339 339 339 338 336 336 335 334 334 333 332 329 326 325 328 328 329 329 329 330 331 333 335 336 334 333 332 331 332 332 332 331 330 327 327 328 329 328 327
339 339 338 338 339 338 338 337 337 337 336 334 333 332 332 334 334 334 334 333 333 335 335 336 337 336 336 337 338 338 337 335 332 333 336 336 336 336 335 336 338 339 339 339 339 339 339 338 338 337 335 334 333 333 333 333 333 331 328 326 328 328 328 328 329 331 333 334 335 335 335 334 332 331 332 332 332 332 330 327 327 328 328 328 327
339 339 338 338 338 337 336 336 336 336 336 334 334 333 334 335 335 335 334 333 333 334 335 336 336 336 337 337 338 337 337 336 333 334 335 336 336 336 336 337 338 339 339 339 339 339 338 338 337 335 333 332 331 331 331 331 332 332 330 327 327 328 329 329 331 331 332 334 334 335 335 335 333 331 331 331 331 332 330 326 326 328 328 327 324
338 338 338 338 336 335 335 335 336 337 337 335 335 335 335 335 335 335 335 335 334 334 335 334 335 335 336 336 336 335 336 335 334 334 334 336 336 336 336 337 337 337 338 338 339 338 338 337 335 332 331 331 330 330 329 330 331 331 330 328 328 328 330 330 333 333 330 331 333 335 335 335 332 328 329 330 330 330 329 326 325 327 327 325 324
337 338 337 337 336 336 335 335 337 337 337 335 336 337 335 335 335 335 335 335 334 334 334 334 334 334 335 335 334 335 335 335 334 334 334 335 335 336 336 336 337 336 336 337 338 338 337 336 334 331 330 329 328 328 328 328 329 330 330 330 330 330 331 331 334 334 329 330 332 334 335 333 329 325 327 329 329 329 327 325 326 327 326 325 325
337 338 337 338 336 337 336 336 337 337 336 334 335 334 333 334 334 334 334 333 333 333 333 333 334 335 335 335 334 334 334 334 333 333 333 332 331 333 334 334 335 335 336 336 337 337 335 334 331 329 329 328 328 327 327 327 328 329 329 330 331 331 331 332 334 333 328 329 332 334 334 332 327 325 328 330 329 328 327 326 327 327 326 326 326
335 337 337 338 337 337 337 336 336 336 335 334 333 331 331 332 332 333 333 334 333 333 333 333 333 335 336 334 333 333 333 333 332 333 333 330 329 330 331 330 332 334 336 336 336 334 333 332 330 329 328 328 328 327 327 328 327 328 328 329 330 331 331 332 333 332 330 330 332 333 333 331 328 326 329 330 330 329 327 326 327 327 327 327 326
335 336 337 337 337 336 337 337 336 335 334 333 331 330 331 331 331 332 333 334 333 332 333 333 333 335 335 334 333 332 333 334 333 333 333 330 329 329 329 329 331 333 335 335 335 333 333 333 330 329 329 328 328 328 328 328 328 328 328 328 330 331 332 334 334 331 331 330 330 333 333 331 328 327 329 331 331 330 328 327 328 328 328 327 326
336 336 337 337 337 336 337 337 335 333 332 332 331 331 331 331 332 332 333 333 332 332 333 333 334 335 335 334 332 332 333 333 332 332 332 330 328 327 328 329 330 332 333 334 334 333 333 333 331 330 329 328 328 327 328 328 328 328 329 328 329 330 331 335 335 332 331 330 331 333 334 330 327 327 329 331 331 330 329 327 328 328 328 327 326
336 336 336 336 336 336 336 336 335 332 330 331 333 333 333 332 332 332 332 332 332 332 332 332 333 335 334 333 333 333 333 333 331 330 330 330 329 328 328 327 329 331 332 333 333 332 332 332 332 330 329 328 327 327 328 328 328 329 330 329 329 330 332 334 334 333 331 330 332 333 334 330 328 327 328 331 331 330 330 328 327 328 328 326 325
335 335 336 336 336 336 336 336 335 333 331 331 333 334 333 333 333 333 333 332 332 332 332 332 333 334 333 332 333 333 334 335 333 331 329 329 330 330 330 328 328 329 330 331 331 331 331 331 331 330 330 329 328 327 327 328 328 328 329 329 329 330 331 333 335 334 329 330 333 334 334 331 328 328 328 331 331 330 330 328 327 327 328 326 325
334 335 335 334 335 336 335 335 335 333 332 332 333 334 334 333 333 333 332 332 333 331 332 332 332 332 330 329 329 330 332 332 329 329 329 326 328 329 329 329 328 328 328 328 329 329 329 329 330 330 330 329 329 328 327 327 327 327 327 327 328 331 332 333 334 333 330 332 334 335 334 330 328 328 329 332 331 330 330 329 328 327 327 327 326
334 335 335 334 335 335 335 335 335 333 333 333 333 334 334 333 333 333 333 333 333 333 332 332 331 330 330 331 330 331 334 331 328 330 330 326 326 327 327 327 327 328 327 327 327 327 327 327 327 328 328 328 329 328 328 327 326 326 326 326 327 331 334 335 335 333 332 333 334 335 331 328 328 329 331 333 332 330 329 329 329 328 327 327 327
334 335 336 335 335 335 336 336 336 334 332 332 332 333 333 333 334 333 333 333 334 334 333 333 332 332 332 334 335 336 336 334 333 334 334 332 328 325 326 326 326 327 327 327 326 326 325 325 325 325 325 326 326 327 327 327 327 326 326 326 327 332 335 336 335 333 332 333 334 333 329 327 328 329 331 333 332 330 330 330 329 328 327 327 327
334 334 335 336 335 335 335 335 336 335 333 333 334 335 335 336 335 335 334 333 335 335 333 334 333 332 332 334 334 335 336 335 335 336 336 336 332 328 327 326 326 326 326 326 326 326 326 325 325 324 324 324 324 324 324 327 326 325 325 325 328 334 336 335 335 335 334 334 335 333 330 329 329 330 332 333 332 330 329 330 329 328 328 327 327
334 333 334 335 335 335 334 334 335 335 334 335 335 335 336 336 334 334 335 335 337 336 334 334 332 331 330 331 332 332 334 333 333 334 335 336 333 331 330 328 328 326 325 325 325 325 325 325 325 325 325 325 325 324 326 329 329 328 327 326 331 336 336 335 335 336 335 334 335 334 331 331 330 330 331 332 333 331 329 329 329 329 328 327 327
334 334 333 334 335 335 334 333 334 334 334 334 334 334 335 334 332 334 335 336 337 335 335 336 334 334 333 332 333 332 332 333 334 335 335 336 336 334 332 331 330 328 326 325 324 325 326 325 324 325 324 325 327 328 330 332 332 332 332 332 335 337 335 335 335 335 336 335 334 333 332 331 331 332 331 332 333 331 330 330 329 329 329 328 328
335 335 335 335 336 334 334 335 333 333 334 334 333 333 333 332 334 335 336 337 336 335 336 337 337 338 337 335 334 332 333 334 335 335 335 336 336 334 334 335 334 333 332 330 329 333 333 329 327 329 328 327 330 332 333 333 333 333 335 336 336 336 336 335 335 335 337 337 334 333 332 332 330 331 333 333 334 333 331 330 330 330 330 329 329
335 335 336 336 336 334 334 335 334 334 334 334 333 334 334 333 333 335 337 337 336 336 336 338 339 339 339 337 335 334 333 334 333 333 334 333 333 333 334 334 335 335 335 334 334 337 337 334 333 335 334 332 333 334 334 333 333 333 335 336 335 335 335 336 336 336 338 339 337 334 332 332 330 329 332 334 334 333 332 331 330 331 331 330 330
334 335 335 335 335 334 333 334 335 335 335 335 334 334 334 333 334 337 338 338 338 338 337 337 339 339 337 336 335 335 332 332 332 332 332 332 332 333 333 333 333 334 334 334 335 336 335 335 335 335 334 334 334 334 334 333 333 334 335 334 334 334 334 335 335 336 339 340 338 337 335 332 330 328 330 333 335 334 334 333 331 331 331 331 331
333 332 333 334 333 333 334 335 335 336 336 335 335 335 335 335 336 336 335 337 338 337 337 336 336 336 334 334 334 333 331 332 332 331 330 331 332 332 332 332 332 333 333 333 334 334 333 334 335 334 333 333 334 333 333 334 334 336 336 333 333 334 333 335 335 335 339 340 339 339 337 334 331 330 328 330 334 335 335 334 333 332 331 331 331
332 331 331 331 330 331 333 335 334 334 333 333 332 331 330 330 329 328 328 334 335 335 336 335 334 334 333 333 334 331 331 332 332 331 330 330 331 331 331 331 332 332 332 332 332 333 333 333 334 334 333 333 334 332 333 335 335 336 337 335 335 334 332 336 336 336 339 339 338 338 337 335 332 331 330 329 331 333 334 334 334 333 333 332 332
332 332 332 331 329 328 329 331 330 328 327 330 329 325 323 322 323 323 325 328 331 334 336 334 333 333 331 332 333 331 331 332 331 331 331 330 329 330 331 330 330 331 331 331 331 332 333 333 333 333 334 334 334 332 332 335 335 335 336 335 335 334 332 335 336 336 338 339 337 337 336 334 331 331 332 330 330 331 333 335 335 335 334 333 333
332 332 332 331 328 326 327 327 326 325 328 330 327 323 323 322 321 321 323 326 329 334 334 332 331 329 329 332 334 331 331 333 332 332 332 330 328 329 330 330 330 331 331 331 331 332 333 333 333 333 335 335 334 333 333 334 334 335 335 333 333 334 332 333 335 334 335 335 335 336 335 332 331 332 331 330 329 331 333 334 334 334 335 335 334
332 332 332 331 327 326 328 327 326 328 328 326 323 322 321 321 321 321 324 328 330 332 332 330 329 328 328 331 333 332 331 333 333 333 332 330 329 328 329 331 330 331 332 331 331 332 332 332 332 333 334 335 334 334 334 333 333 333 334 333 332 333 332 333 334 333 332 334 334 335 335 333 332 332 331 330 329 330 331 331 332 333 334 334 334
333 332 332 330 326 326 328 328 328 328 326 322 321 321 320 321 322 324 325 326 328 329 328 327 328 328 329 330 332 333 332 332 332 332 332 331 331 329 329 330 329 330 331 331 331 332 332 331 332 332 333 333 333 334 333 333 333 333 333 334 333 332 332 334 334 332 333 335 334 333 334 334 333 332 332 331 330 331 331 332 333 334 333 333 333
333 333 332 330 327 326 327 329 330 328 323 320 321 322 322 323 323 323 323 323 326 327 327 329 329 329 330 331 332 332 332 332 332 331 331 330 330 330 330 330 330 330 331 330 331 331 331 331 332 332 332 331 331 331 332 332 331 332 333 332 333 332 332 333 333 333 334 335 334 333 333 333 332 331 332 333 333 333 333 334 334 333 333 333 333
334 332 332 331 328 328 327 328 329 327 322 321 323 323 324 325 325 325 323 324 327 329 329 330 330 329 330 331 331 332 332 331 331 331 330 330 329 329 330 331 331 330 330 330 330 330 330 331 331 331 331 331 330 329 329 329 329 330 331 332 333 332 332 332 332 333 334 334 334 334 334 334 333 333 334 334 334 334 333 333 332 332 332 332 333
335 332 331 331 330 330 329 328 328 326 325 325 325 326 328 329 329 329 327 328 330 330 329 328 328 329 329 330 330 331 331 331 331 330 330 329 329 329 330 330 331 330 330 330 330 330 330 330 330 330 330 330 329 328 327 328 328 329 330 332 333 332 333 333 333 333 334 334 334 335 336 335 335 335 335 335 333 333 332 330 331 331 331 331 332
335 333 331 331 331 331 331 331 330 329 329 330 330 330 331 331 330 330 330 331 331 329 328 327 328 328 329 330 330 330 330 330 330 330 330 329 328 329 330 329 330 330 329 329 329 329 330 330 330 330 330 329 328 327 327 327 327 328 330 332 332 331 333 333 333 334 334 335 335 335 335 334 335 334 334 334 333 332 331 330 330 330 330 330 331
334 334 333 332 332 332 332 331 330 330 331 332 332 331 331 331 331 331 330 329 328 328 328 327 327 328 329 330 330 330 329 329 330 329 329 329 329 329 329 329 329 329 329 329 329 329 330 330 331 331 330 329 328 327 327 328 327 327 329 331 332 332 333 334 333 333 334 334 334 333 333 333 333 333 333 333 333 332 331 330 330 330 330 330 330
335 335 335 334 333 333 333 332 332 332 331 331 331 330 330 331 331 330 330 329 328 328 328 327 328 328 329 330 330 329 329 329 329 329 329 329 329 329 329 329 329 329 329 329 329 329 329 330 330 330 330 329 329 329 329 329 328 328 328 330 332 332 333 334 333 333 334 334 334 333 332 332 332 332 332 332 332 331 330 329 330 330 329 328 328
335 335 335 334 334 333 333 333 333 332 331 331 330 331 331 330 331 331 329 329 328 328 328 327 328 329 330 330 329 329 329 329 329 329 329 329 329 329 329 329 329 328 329 329 329 329 329 329 330 329 329 329 328 329 330 330 329 329 329 331 332 332 333 333 333 333 333 333 333 332 332 332 331 331 331 330 330 329 329 328 329 329 329 327 326
334 335 335 334 334 333 333 333 333 332 332 331 331 331 331 330 331 331 330 329 329 328 327 327 328 329 330 329 329 329 329 328 328 328 329 329 329 328 329 329 329 328 328 329 329 329 329 329 329 329 329 329 328 329 329 329 330 330 331 332 331 331 333 333 333 332 332 332 332 331 331 331 330 330 329 329 328 328 328 328 329 328 327 326 325
335 334 334 333 333 332 332 332 332 332 331 330 329 329 329 329 330 330 330 329 329 328 328 327 328 329 329 329 328 328 328 327 327 327 328 328 328 328 328 328 328 329 328 328 328 329 329 329 329 329 329 329 329 329 329 329 330 330 331 333 331 330 331 332 332 331 331 331 330 330 330 329 329 328 328 327 327 327 327 327 328 327 326 324 323
335 334 333 332 332 331 331 331 331 332 330 328 328 327 327 328 328 327 327 327 328 328 328 328 328 328 329 328 327 326 326 327 326 326 327 328 327 328 328 328 328 328 328 328 328 328 328 328 328 329 329 329 329 328 328 329 330 330 331 333 334 332 331 330 330 330 330 330 329 329 328 328 327 327 326 326 326 326 326 326 325 325 324 323 322
333 334 333 332 331 331 330 331 331 330 328 328 328 327 328 330 329 329 328 328 329 329 330 330 330 328 328 328 327 326 325 326 326 325 326 327 327 327 327 328 327 326 326 327 327 327 327 327 328 328 328 329 330 329 328 328 329 331 332 333 335 334 332 330 330 329 329 329 327 327 327 327 327 326 325 325 325 325 325 325 324 323 322 321 320
332 333 333 332 331 331 330 330 331 330 329 329 330 328 330 331 331 331 331 330 331 331 330 330 329 328 328 328 327 327 326 325 326 325 325 325 326 326 325 325 326 324 325 326 325 324 326 327 327 327 328 329 330 330 329 328 329 330 331 333 334 334 333 331 330 329 328 327 326 326 326 326 326 325 325 325 324 324 324 323 323 322 321 320 318
333 334 332 331 331 331 330 330 330 330 329 329 330 331 332 332 331 332 333 333 333 332 331 331 329 328 329 328 326 327 326 325 325 325 324 324 324 325 324 322 324 323 323 325 324 323 325 326 326 327 327 328 329 330 330 329 329 329 330 331 332 332 331 330 331 330 327 326 326 325 325 325 325 325 325 325 324 324 323 322 321 320 320 318 317
334 334 331 330 330 330 330 330 330 330 329 329 332 333 332 332 333 332 332 332 332 329 329 331 330 329 329 328 327 327 326 325 325 324 324 323 321 324 324 321 322 323 323 324 324 324 324 325 325 325 326 327 328 329 330 329 329 330 330 330 330 329 329 329 331 331 329 326 325 325 324 324 324 324 324 323 323 323 322 322 320 319 318 317 316
334 334 331 330 329 329 329 331 331 331 330 331 333 333 331 331 331 331 329 330 329 327 329 330 331 331 330 329 328 328 326 326 326 324 323 322 320 321 323 322 322 323 323 323 323 324 324 324 325 324 324 325 327 328 328 329 330 330 330 330 329 328 327 328 328 329 331 328 326 325 324 323 322 321 322 322 322 322 322 321 318 316 314 312 311
334 334 333 331 329 329 330 331 331 331 331 331 332 332 332 330 329 329 329 329 329 328 329 330 330 330 330 330 329 328 327 326 326 324 321 322 323 322 323 324 324 323 323 323 323 323 324 324 324 324 324 324 325 326 327 328 329 329 329 330 329 328 328 327 326 328 329 328 327 326 324 322 320 317 318 319 319 319 319 318 315 311 309 306 303
335 334 335 333 330 330 329 330 331 331 332 331 331 332 332 330 330 330 330 328 329 330 329 329 330 330 331 331 330 329 328 326 326 325 322 323 324 323 322 324 324 323 323 322 322 323 323 323 323 323 323 324 324 325 326 327 328 328 328 328 329 329 329 328 328 328 328 327 327 326 324 322 320 316 314 315 315 315 314 313 311 308 307 305 300
335 335 335 335 333 331 330 330 330 331 332 330 329 331 331 330 331 330 330 329 328 330 329 328 329 330 331 331 331 330 328 326 325 326 324 322 323 323 322 323 324 324 323 323 323 322 323 323 322 322 322 323 324 324 325 326 327 327 327 327 327 328 328 327 328 328 327 327 326 326 325 322 318 315 313 313 313 312 311 310 309 308 306 305 302
Wind_Speed
9 9 7 4 4 4 4 5 8 9 9 10 10 9 9 9 9 8 7 9 10 11 12 11 11 11 9 9 9 9 9 9 10 10 11 12 11 11 10 9 9 8 7 7 6 6 7 8 6 6 8 9 9 9 10 10 11 12 13 13 13 15 15 16 15 14 13 12 12 13 13 13 13 12 11 12 12 11 9 9 11 13 13 12 12
8 8 5 4 4 4 4 6 9 10 10 11 10 10 9 9 9 8 8 8 8 9 10 11 11 10 10 9 9 9 9 9 9 9 10 10 9 9 9 8 8 8 7 6 6 6 6 7 5 6 8 9 9 10 10 10 11 12 13 13 14 15 15 14 13 13 12 12 13 13 13 13 13 12 12 12 13 13 13 12 13 13 11 12 13
8 8 5 5 5 4 5 6 9 9 10 11 11 11 11 11 10 9 9 8 8 9 10 12 11 10 11 11 10 9 9 9 10 10 10 9 8 8 7 7 7 9 8 8 7 7 7 6 6 8 10 9 10 11 11 11 12 12 13 14 15 15 13 12 13 13 14 14 15 15 16 15 14 13 12 12 12 12 14 14 13 13 12 12 12
8 8 6 6 6 6 7 8 9 9 10 11 11 12 13 13 13 12 12 11 11 12 13 14 13 11 11 13 11 10 10 10 10 10 9 7 7 7 7 8 9 8 7 9 9 8 7 6 8 10 11 12 13 13 13 13 13 13 13 14 14 14 12 12 12 12 13 14 15 17 17 17 16 14 13 12 13 12 11 12 12 12 11 11 11
9 8 7 6 7 8 9 9 10 10 11 11 11 13 14 14 14 14 14 14 15 15 15 15 14 13 13 13 11 9 9 9 9 8 8 7 7 6 6 8 8 6 7 9 9 9 8 8 11 12 13 14 14 13 13 12 13 13 13 13 13 13 13 12 10 10 11 11 13 15 14 16 16 14 14 13 13 12 11 12 12 11 10 10 10
10 9 8 8 8 9 10 10 10 10 11 11 12 12 13 14 14 14 14 15 16 16 15 14 14 14 14 12 9 7 8 8 7 8 8 7 6 6 6 7 6 6 8 9 9 9 10 12 14 14 14 15 14 14 14 13 13 13 13 13 14 14 13 10 9 8 8 8 7 7 11 16 16 13 13 13 12 11 11 11 11 10 9 10 9
11 11 10 9 9 10 10 10 10 11 12 12 12 12 13 13 14 14 15 14 15 15 14 14 14 13 12 10 8 7 7 7 7 8 8 7 6 6 7 8 6 8 9 9 10 11 13 14 15 15 14 15 14 14 14 14 13 14 13 13 14 13 12 10 8 7 6 6 4 2 9 15 14 12 11 11 10 9 10 10 9 9 10 10 10
12 11 10 10 10 10 11 11 11 12 12 12 12 11 12 14 14 14 14 13 13 14 14 14 13 11 11 9 8 7 6 6 7 9 10 9 6 6 8 8 8 9 10 11 12 13 14 14 14 14 14 14 13 13 13 12 12 12 12 12 12 11 10 9 7 6 5 3 1 5 12 13 12 11 9 9 9 9 9 9 9 10 10 9 9
12 11 11 12 11 10 11 11 11 12 12 12 12 12 13 13 13 12 12 11 11 13 13 13 12 11 11 9 8 6 6 6 7 9 11 9 5 5 7 7 9 10 10 11 13 13 14 13 12 12 12 12 12 12 11 10 9 9 10 11 11 11 10 8 5 3 1 3 7 10 12 11 10 10 9 9 9 9 8 8 9 9 8 8 8
12 11 12 12 11 10 11 11 11 12 12 12 12 11 11 12 12 10 10 11 12 12 12 12 11 10 10 9 8 7 6 6 8 9 10 9 5 4 6 7 8 9 10 11 11 12 13 12 12 12 11 11 10 10 9 8 7 7 8 9 10 11 10 7 6 5 5 8 10 11 11 11 11 9 9 9 9 8 8 9 8 8 8 8 8
13 13 12 12 11 11 12 11 12 13 13 13 12 11 10 10 10 9 9 11 12 11 10 10 10 10 9 10 11 10 7 6 8 7 8 7 6 6 6 7 7 7 9 11 11 11 12 11 11 11 11 10 10 9 8 7 6 6 6 7 9 9 8 5 4 3 6 10 10 10 12 12 9 7 9 10 10 9 9 7 7 9 8 7 8
13 13 12 12 11 10 11 11 12 13 12 13 12 11 10 10 9 8 9 10 11 10 10 9 9 9 9 11 14 13 9 7 7 7 7 7 6 6 6 7 7 7 9 10 11 11 11 10 11 11 10 10 9 8 8 7 6 6 5 6 8 8 5 3 0 2 5 10 10 12 13 11 7 7 9 11 10 8 7 7 8 9 8 8 8
13 12 11 11 10 10 11 11 12 12 13 13 11 11 10 10 9 8 9 9 9 10 11 10 9 10 11 12 15 14 10 8 7 6 6 6 6 5 6 7 8 8 9 10 10 10 11 11 11 10 10 9 8 8 8 7 6 6 6 6 8 7 3 1 3 3 6 8 9 14 13 11 6 7 11 11 10 9 9 10 10 9 8 8 7
13 12 12 11 10 9 11 11 11 12 12 12 11 11 10 10 10 9 8 9 10 10 11 10 9 10 12 14 15 14 11 8 6 6 5 4 5 5 5 6 7 8 9 10 10 10 12 11 10 9 9 8 7 8 8 7 6 5 6 6 7 6 5 6 6 4 6 6 9 11 10 8 5 7 11 11 9 9 10 10 9 8 7 7 6
15 13 12 11 10 9 10 11 11 12 13 13 12 11 11 11 11 10 10 10 10 10 10 10 10 11 12 13 14 13 11 8 6 5 4 3 4 4 5 6 7 8 8 9 10 11 11 10 9 8 8 7 6 6 7 7 6 5 4 4 7 8 6 4 3 3 4 4 7 9 8 6 4 7 11 11 9 9 9 9 9 7 6 6 7
14 13 12 11 11 10 10 11 12 14 13 13 12 12 13 12 11 11 11 11 10 9 9 10 10 10 12 11 12 12 10 7 5 4 3 3 3 3 5 5 6 7 8 9 9 10 10 9 7 7 6 5 5 4 5 5 5 4 3 2 5 7 5 4 2 3 3 3 6 10 9 5 5 8 11 11 9 9 9 8 8 7 6 6 7
12 13 12 12 13 12 12 11 12 13 13 12 12 12 12 12 12 12 12 11 10 8 8 9 9 10 11 10 11 10 9 7 4 3 2 2 2 3 4 4 5 6 7 8 9 9 8 7 6 6 5 4 3 3 3 3 2 2 2 2 1 5 5 3 2 2 3 3 6 10 7 5 6 8 10 11 9 8 8 7 8 7 6 6 6
13 13 12 12 13 13 13 13 11 12 13 11 11 11 11 12 12 12 12 10 10 9 8 9 9 9 10 9 9 8 7 6 3 2 2 1 1 2 2 3 4 5 5 6 7 7 7 6 6 5 4 3 2 1 1 0 0 1 2 3 2 2 4 4 5 2 3 2 5 8 5 3 6 7 9 11 10 9 8 7 7 7 7 7 6
14 12 11 12 14 14 14 13 11 11 12 11 9 8 9 11 11 12 11 9 9 9 9 8 9 10 10 8 8 8 5 3 2 1 0 1 1 1 1 1 2 3 4 5 5 6 6 6 6 5 5 4 3 3 2 2 2 3 3 4 3 1 2 3 5 3 3 2 4 6 4 3 6 7 8 10 9 8 8 7 7 6 7 6 4
13 10 11 12 11 12 13 12 9 9 11 10 8 7 7 8 9 10 9 8 7 8 9 8 8 9 9 8 7 7 4 2 3 2 1 1 1 1 1 0 1 1 2 2 3 4 5 5 5 6 5 5 5 5 4 4 4 4 4 4 4 2 3 5 6 3 3 3 4 5 3 4 7 7 8 10 9 7 7 7 7 6 6 6 5
12 9 10 10 9 11 11 10 10 9 10 9 8 6 6 7 7 8 8 8 7 7 8 8 8 8 7 7 5 5 4 3 2 2 0 1 2 1 2 2 1 2 2 2 2 2 3 4 5 5 6 6 6 6 6 7 6 6 5 4 3 2 5 6 4 1 2 3 5 4 1 4 6 7 8 10 9 7 7 7 7 6 6 6 6
12 10 9 9 8 10 10 10 11 9 9 8 6 6 5 6 6 6 7 7 7 7 8 9 8 7 6 6 6 4 3 3 2 1 0 1 2 2 2 3 3 3 3 3 3 3 4 4 5 5 5 5 6 7 7 8 8 8 6 5 4 3 5 3 2 2 1 3 5 2 1 3 4 6 7 9 8 7 7 7 6 6 6 6 6
11 12 11 11 9 10 11 10 10 9 9 7 5 5 4 4 5 6 6 5 5 7 9 9 8 7 6 7 6 3 3 4 3 0 1 1 1 3 2 2 3 3 4 4 5 5 5 6 6 6 6 6 6 5 6 8 9 9 8 6 5 5 6 4 4 4 3 0 5 2 1 2 3 4 6 7 8 7 7 7 6 6 5 5 4
10 12 12 12 10 11 11 10 9 9 9 8 6 5 4 4 5 7 6 4 5 8 9 8 8 7 7 8 6 3 3 5 3 0 2 2 1 2 2 2 2 2 3 4 5 5 6 7 7 7 7 7 6 4 7 9 8 8 8 7 6 6 7 5 4 4 3 1 4 2 2 2 1 2 4 6 7 6 6 6 6 6 5 5 4
9 10 10 11 11 9 8 9 10 9 9 9 7 6 6 4 4 6 6 5 5 7 9 8 8 6 7 10 8 6 4 3 3 2 2 3 3 2 3 4 4 4 4 4 4 5 7 9 8 9 9 8 7 9 12 11 9 9 9 10 9 8 7 5 3 3 2 1 1 1 2 2 1 2 3 5 6 6 5 5 6 7 6 6 6
10 10 10 10 10 8 6 7 9 10 9 10 9 8 7 6 6 7 7 6 6 7 8 7 7 6 6 9 11 9 3 1 2 2 3 3 2 2 3 4 4 4 6 7 6 7 9 9 9 10 11 10 11 14 14 11 9 9 11 13 9 8 9 6 3 2 1 1 1 2 2 2 2 1 2 4 5 5 5 5 6 7 6 6 7
10 10 10 10 9 8 7 9 10 10 9 9 10 9 8 7 7 7 7 7 7 8 8 8 8 7 7 6 8 8 4 3 0 2 3 1 1 1 2 3 3 4 6 7 7 8 10 11 11 11 12 13 13 13 11 9 8 8 10 10 8 8 8 6 5 2 1 0 1 3 3 2 2 2 3 4 4 5 6 6 6 7 7 7 7
11 11 11 10 9 8 8 9 10 10 9 9 10 10 10 9 8 8 10 9 7 7 8 8 9 7 7 7 7 7 4 2 2 1 2 2 1 3 3 3 4 4 4 6 7 8 11 13 11 10 12 13 12 11 10 9 6 7 8 7 6 7 7 5 4 3 2 2 3 3 1 1 3 5 5 4 4 6 7 7 7 7 7 8 8
11 10 11 10 9 8 9 8 9 10 10 12 13 14 13 12 11 10 11 9 8 8 8 8 8 7 7 7 8 8 7 5 2 3 5 3 3 4 4 4 3 4 4 6 8 7 9 12 11 9 9 9 10 10 11 8 5 8 7 5 4 6 8 6 5 3 3 5 4 2 2 4 7 6 6 6 5 8 9 8 8 8 8 9 10
10 9 11 11 10 9 10 9 9 11 13 14 15 16 15 13 12 11 10 9 8 8 8 7 7 7 8 8 9 9 8 8 6 6 6 4 6 4 3 5 3 4 3 5 7 6 7 9 9 8 7 8 9 7 7 8 9 9 7 4 4 6 7 6 6 1 6 3 4 4 4 5 7 5 5 7 7 9 9 8 7 8 9 10 10
10 10 11 11 10 10 11 11 12 14 14 14 14 15 14 12 11 10 9 8 8 9 8 7 8 8 8 8 9 9 8 8 8 8 8 6 8 7 5 5 3 4 3 5 5 6 7 7 5 5 6 8 9 7 6 8 8 8 6 5 5 7 6 4 3 2 3 3 3 3 3 2 3 3 4 7 8 8 7 6 5 6 8 9 8
11 10 12 13 12 12 12 12 14 15 15 14 12 12 10 10 9 9 8 7 8 9 8 7 8 10 10 9 9 9 9 9 9 8 8 7 8 7 7 6 5 4 1 5 7 9 11 9 6 6 7 7 7 7 7 6 5 3 5 7 12 9 6 2 6 4 4 3 1 1 1 1 1 0 4 6 7 6 5 6 5 5 7 7 7
13 10 13 16 15 13 13 12 14 16 15 14 12 11 8 7 7 6 5 6 8 8 8 8 8 10 11 11 10 10 9 9 9 8 9 9 8 8 8 8 7 6 5 4 2 4 7 5 6 6 6 7 7 7 6 5 4 3 1 4 9 6 1 5 9 5 4 6 4 3 3 3 2 2 4 4 4 3 3 3 4 5 6 7 7
15 12 12 16 17 14 12 12 14 15 14 13 11 9 7 5 4 4 4 5 7 7 7 7 7 9 9 10 10 9 9 9 9 9 8 9 8 8 9 9 9 7 6 5 4 6 7 6 7 8 8 8 8 7 5 3 3 2 3 6 4 5 8 8 10 8 8 8 6 5 6 6 4 4 4 3 2 2 2 3 5 7 8 8 7
17 15 11 12 15 14 12 12 13 14 12 11 9 7 7 6 4 4 4 4 5 6 6 5 5 7 7 8 9 9 9 9 9 9 9 9 8 9 9 9 10 10 8 7 7 7 6 7 8 9 10 11 12 9 3 1 4 4 6 9 8 7 10 11 13 13 11 8 7 7 9 8 7 6 6 6 6 7 7 7 8 9 10 10 12
14 16 12 10 12 12 11 12 12 12 11 9 8 7 6 5 3 1 1 2 2 2 4 4 5 7 7 8 8 9 9 9 10 10 11 11 9 10 11 10 11 11 9 9 10 10 9 8 8 8 8 9 12 13 9 6 4 3 5 7 9 9 11 13 14 14 12 10 9 8 9 9 8 7 6 8 10 11 10 11 11 10 11 13 16
12 14 13 12 12 12 11 10 10 11 10 8 7 6 4 2 2 2 1 2 1 2 4 5 6 7 7 8 8 9 9 10 10 10 10 11 9 10 11 10 11 10 10 11 10 10 11 10 10 9 8 8 10 12 11 11 8 5 6 7 8 10 12 14 14 14 13 12 10 9 9 9 8 7 7 8 9 9 10 11 11 12 13 15 17
13 13 14 14 13 13 12 10 10 10 9 8 6 5 4 3 2 1 1 2 3 5 5 6 6 7 7 8 8 8 9 10 10 10 10 10 10 10 10 11 11 11 11 12 10 10 11 10 12 12 9 9 10 10 11 12 10 7 8 11 10 11 12 14 16 16 16 14 12 11 11 11 9 9 9 9 8 7 8 8 9 12 15 16 17
14 13 12 13 12 12 13 12 12 10 9 8 7 5 4 3 2 1 1 2 4 4 4 5 5 6 6 7 7 8 8 9 9 10 10 10 10 10 11 11 11 11 11 12 11 12 12 11 12 12 10 9 8 9 11 11 9 8 11 12 12 13 14 16 17 16 16 15 12 11 11 11 11 11 12 12 11 11 11 10 9 10 14 17 17
13 12 10 10 10 10 11 11 11 10 10 9 7 7 5 5 5 3 2 3 3 3 4 4 4 5 6 6 6 7 7 8 8 9 9 9 10 10 10 11 11 11 11 11 11 12 12 12 12 11 11 9 7 8 10 9 9 7 8 11 14 15 15 15 16 15 14 13 12 11 11 13 13 12 13 13 13 14 13 13 13 12 14 17 18
10 10 10 10 9 9 9 9 9 9 9 9 8 8 7 6 5 4 4 3 2 2 3 4 4 5 5 6 6 7 6 7 7 8 9 9 9 9 10 11 11 11 11 11 11 11 12 12 12 13 13 12 9 7 8 7 7 3 6 12 15 16 15 14 14 14 13 13 13 13 13 14 14 13 14 14 14 14 14 13 14 15 16 17 19
10 9 9 9 8 9 9 8 9 8 8 8 8 7 5 5 5 5 5 4 3 4 5 4 4 4 5 5 6 7 7 7 7 7 8 9 9 8 8 9 10 10 10 10 11 12 13 13 14 14 14 15 11 6 8 8 7 6 2 7 11 11 13 14 14 14 14 14 14 14 14 14 14 13 13 13 14 15 15 13 15 17 18 19 21
10 9 9 9 8 9 9 8 9 7 6 6 6 4 2 2 4 5 4 4 5 5 5 4 3 4 4 5 6 6 7 7 7 6 6 7 7 8 7 7 8 9 10 10 11 11 13 14 15 15 15 16 13 9 11 9 8 10 5 1 4 5 6 9 12 13 13 14 14 14 14 14 13 12 11 11 12 14 15 14 16 18 18 18 19
11 10 9 9 9 9 9 8 8 7 6 6 5 4 3 4 5 5 4 4 5 4 4 4 3 3 4 4 5 6 6 6 6 6 6 6 6 6 6 5 6 8 10 11 10 10 12 13 14 15 14 15 15 14 12 9 10 9 4 2 1 2 2 3 7 10 11 12 12 13 14 14 13 12 12 12 11 12 13 14 16 17 17 17 17
12 11 10 10 9 9 9 8 8 7 8 7 5 6 6 5 6 5 4 4 4 4 4 2 2 1 2 2 3 4 4 5 5 5 5 5 6 5 6 6 6 7 8 9 9 10 12 13 14 15 14 15 15 15 12 11 10 8 5 3 1 1 2 3 4 7 8 10 11 11 12 12 12 12 13 13 12 12 11 13 14 15 17 16 17
11 12 11 10 9 9 10 9 8 8 8 8 7 8 8 7 8 6 5 6 6 5 5 4 4 3 2 1 0 2 3 3 4 5 4 4 5 5 5 6 6 6 6 7 8 11 13 13 13 14 14 14 14 14 14 13 11 9 8 6 2 1 3 4 2 2 5 9 11 11 11 12 12 13 12 12 12 12 11 12 13 14 16 16 16
10 11 11 10 10 10 10 9 9 8 8 9 8 8 8 8 9 8 7 8 8 7 5 5 5 4 3 2 2 1 1 2 3 4 4 4 3 4 5 4 6 7 6 5 7 9 11 11 12 13 14 13 13 14 15 15 13 11 11 8 5 3 6 4 2 3 3 5 9 11 11 10 10 10 11 11 11 11 11 13 14 15 15 15 15
10 10 10 11 10 10 11 9 9 8 8 9 9 8 9 8 7 7 8 8 8 7 7 6 5 5 4 3 3 1 1 1 3 3 3 4 3 3 4 3 5 7 6 4 5 7 8 9 10 11 13 13 14 14 14 15 14 13 12 11 9 7 7 4 5 5 3 2 4 8 10 10 9 9 10 10 10 10 11 13 15 15 14 14 14
10 11 10 10 10 11 11 9 8 8 8 8 9 8 8 8 8 8 8 7 7 8 9 8 7 6 5 4 2 1 0 0 1 1 3 4 3 3 4 3 3 5 5 6 5 5 6 8 9 10 11 13 13 13 13 14 14 13 13 12 12 9 8 5 4 6 4 3 3 4 6 9 9 10 11 10 10 10 12 14 15 15 13 13 13
10 9 8 8 9 10 10 9 8 7 7 8 8 8 8 9 9 9 9 8 8 9 10 9 8 7 7 5 4 3 2 1 1 1 2 3 3 3 3 3 3 1 3 6 6 6 7 7 9 10 10 11 12 12 11 12 12 12 12 13 13 9 6 4 5 6 5 4 4 4 6 7 6 8 10 10 10 10 12 15 15 15 14 13 15
10 9 9 8 8 9 9 10 9 8 9 9 9 9 9 10 10 10 10 9 10 10 10 10 9 9 8 7 5 4 4 3 2 2 1 2 2 2 2 3 3 2 3 6 5 6 7 7 7 8 9 10 11 11 10 11 12 12 12 13 12 10 7 4 4 5 4 5 5 3 5 9 9 8 8 9 10 11 11 13 13 14 13 13 15
Wind_Direction
59 52 24 16 47 42 53 68 64 53 60 64 60 62 65 71 76 80 89 97 95 92 94 93 89 82 81 81 83 84 86 89 84 78 77 78 76 76 78 77 74 71 74 88 98 102 95 89 94 106 101 91 90 91 94 96 91 87 88 91 93 93 90 89 87 85 85 87 89 89 92 93 92 89 85 80 77 74 76 91 87 81 84 83 83
73 65 34 49 68 51 68 78 69 58 65 63 56 63 68 70 69 75 93 104 97 94 94 91 88 83 83 79 80 85 86 89 85 79 75 72 75 79 83 85 84 84 81 87 104 111 108 105 106 103 99 96 97 96 98 99 92 91 93 96 98 96 93 92 90 88 89 92 93 91 91 90 89 86 84 81 81 80 78 86 88 80 82 86 86
73 65 47 77 89 77 89 87 75 66 69 67 62 67 71 73 71 75 87 93 89 87 87 91 90 84 87 85 82 85 85 88 87 83 80 77 82 85 87 89 88 88 88 96 105 109 117 121 115 104 102 101 100 98 98 97 94 96 96 100 102 98 95 94 97 96 95 95 94 91 85 82 86 86 85 83 85 91 84 83 86 85 85 88 88
85 80 67 80 97 93 92 87 84 78 75 73 73 76 75 74 74 77 83 84 82 81 83 90 92 86 91 90 87 88 88 88 88 87 88 91 91 92 89 85 87 89 94 102 107 113 122 128 120 109 105 102 100 99 98 98 98 99 100 102 101 98 99 101 104 103 104 104 97 92 86 81 85 87 87 87 87 89 85 82 86 91 92 89 89
109 100 91 89 92 90 88 83 84 80 78 76 77 79 78 76 77 80 82 82 79 79 79 81 87 89 90 88 87 90 93 93 99 101 96 93 91 96 90 89 96 96 95 103 111 118 120 122 117 108 103 101 98 97 97 97 99 102 103 101 100 106 111 111 111 115 122 125 109 99 93 85 86 89 88 89 88 87 85 84 86 93 98 95 94
118 107 95 92 87 85 86 81 80 80 82 80 77 75 76 78 80 84 83 83 80 77 77 77 84 88 87 85 89 97 102 103 111 109 96 94 95 96 92 95 103 97 96 104 112 114 114 116 113 107 103 99 95 93 92 91 92 96 100 103 108 115 119 116 116 124 138 152 151 126 107 94 90 91 89 89 91 93 91 90 89 93 106 106 105
107 104 94 96 97 94 90 84 81 80 84 83 80 73 73 79 81 85 86 90 88 84 82 81 84 88 90 93 98 103 105 107 111 106 98 97 98 97 99 99 93 92 96 102 111 113 112 113 111 107 103 99 96 93 90 88 88 90 97 108 116 120 119 119 121 131 147 167 209 183 110 101 96 94 95 97 100 104 99 100 96 92 107 108 105
96 99 100 103 100 101 99 92 88 83 84 83 82 77 77 82 83 87 92 96 95 97 97 93 93 94 96 98 96 94 97 107 109 106 104 102 106 111 112 110 97 93 96 100 110 112 111 112 110 106 104 100 96 94 92 89 88 90 98 112 123 123 120 123 133 153 177 194 177 106 104 101 100 99 106 109 111 115 104 106 102 96 107 106 104
98 100 101 98 94 100 101 95 95 93 89 84 81 79 79 82 83 89 96 98 95 99 103 101 101 99 97 94 89 84 89 112 113 109 110 105 112 120 112 109 98 96 100 104 110 114 113 112 110 109 106 99 94 93 93 90 88 91 99 116 127 126 124 124 125 126 162 143 122 115 106 104 107 107 115 116 119 122 112 111 107 98 107 118 118
99 95 92 92 95 96 98 96 100 102 97 93 88 85 83 83 86 90 93 93 88 92 102 107 107 105 101 98 96 90 91 120 124 116 117 110 106 111 107 104 98 100 106 110 114 117 115 113 113 114 109 100 97 95 93 92 93 97 98 115 131 135 136 134 124 83 91 122 119 118 115 120 123 119 126 126 127 125 126 129 121 113 111 116 119
84 81 83 84 91 95 101 105 108 107 102 100 96 93 90 88 90 91 90 88 89 95 108 115 114 109 107 109 107 101 101 125 131 125 120 107 97 104 110 105 101 105 112 117 119 117 115 117 120 119 114 106 103 101 102 106 109 116 110 121 139 146 144 149 147 91 115 117 106 121 126 133 138 129 135 137 138 135 140 142 126 126 118 110 112
79 75 76 80 88 97 106 114 113 108 106 105 101 98 97 94 93 92 92 93 99 104 107 112 113 110 110 113 109 104 106 119 128 128 116 99 93 103 113 110 105 108 118 122 120 118 119 124 127 124 119 111 107 105 109 118 129 138 133 139 151 151 147 160 240 360 132 119 112 134 136 142 142 124 132 134 139 145 150 144 129 127 118 114 118
83 78 79 84 90 98 108 118 113 107 108 106 102 102 102 103 101 97 95 98 105 105 106 111 112 111 115 114 108 107 111 116 121 117 104 97 99 106 115 119 115 114 123 126 123 126 130 135 135 128 119 110 104 101 101 111 128 142 145 152 161 160 160 118 26 29 122 121 131 145 151 154 135 121 132 132 135 140 141 138 137 131 119 121 125
95 91 90 88 90 99 107 112 110 108 106 102 100 100 101 105 108 108 105 106 109 108 109 111 110 111 112 111 111 113 113 110 109 101 94 95 103 112 121 126 122 120 126 132 132 136 140 141 137 125 115 108 102 97 94 99 110 129 146 158 169 162 135 94 57 73 126 131 139 145 162 162 134 129 139 144 144 138 138 141 146 140 127 128 131
106 102 95 89 90 99 105 108 110 111 108 104 102 99 101 104 110 114 114 115 114 109 107 110 113 114 111 109 111 112 107 99 91 88 92 98 105 119 126 126 126 126 131 138 142 144 145 145 138 125 116 111 103 97 96 96 100 112 133 156 170 165 152 136 82 112 141 153 150 148 165 162 146 145 143 154 156 143 142 144 151 150 139 133 134
104 103 99 95 96 102 107 113 115 114 111 106 100 98 101 104 108 109 110 113 111 109 110 110 109 111 111 110 108 106 104 94 81 87 93 102 112 122 122 123 129 129 136 143 147 149 151 150 140 130 125 118 110 102 99 99 99 98 103 139 183 191 203 217 201 164 167 175 156 157 173 173 156 152 146 153 156 149 149 149 153 153 148 139 135
100 103 104 102 103 109 116 120 116 112 109 104 99 97 100 104 106 104 102 106 110 114 115 112 110 108 106 105 101 98 101 98 87 91 91 101 112 119 109 110 124 129 139 146 151 154 157 158 154 147 138 127 121 110 107 107 101 79 69 44 226 204 206 217 262 237 181 174 159 165 184 179 160 161 152 155 159 156 158 157 157 158 159 150 145
93 101 106 107 106 110 121 122 115 114 110 104 100 100 102 103 104 103 100 101 107 113 114 113 114 106 101 100 98 93 94 99 98 94 99 128 131 124 108 100 112 124 140 150 159 165 167 171 172 169 169 169 169 167 169 144 66 12 19 13 7 209 226 252 282 285 167 165 143 159 193 191 172 171 156 160 165 165 170 167 164 169 174 166 158
83 93 101 107 109 111 121 120 117 121 116 110 105 102 102 102 100 101 99 100 100 101 99 96 98 102 102 97 95 95 89 97 105 86 276 171 177 157 124 108 109 118 139 156 168 177 184 187 192 192 200 206 214 233 245 276 288 309 330 349 359 277 267 287 302 314 169 182 147 166 209 204 179 173 162 166 171 171 177 181 177 178 180 179 177
85 90 93 98 105 109 117 117 118 121 118 119 116 105 99 100 99 101 99 99 96 87 84 83 89 96 98 90 88 90 84 107 105 77 311 220 219 247 247 194 140 148 146 168 181 193 205 209 216 217 221 228 235 245 258 274 283 295 299 332 346 297 308 324 320 323 156 175 186 197 217 185 180 179 169 171 178 179 184 193 193 191 191 197 204
85 90 93 96 102 104 111 119 121 119 119 120 116 106 102 102 99 101 102 100 97 85 79 73 73 77 80 79 75 70 65 77 88 78 80 279 295 298 266 261 236 224 212 211 222 227 235 238 239 242 243 244 250 253 258 266 271 278 285 319 323 273 313 333 332 306 145 177 206 221 218 177 186 186 177 178 185 190 195 198 199 205 211 217 219
82 87 91 98 99 95 101 117 123 121 119 114 106 100 96 103 97 98 101 102 103 90 76 68 69 73 74 74 60 43 56 66 40 13 129 271 318 332 296 272 260 250 246 240 247 255 261 266 263 264 265 267 268 264 265 273 280 278 276 291 295 284 298 314 272 260 89 168 211 230 205 195 197 188 184 184 188 196 203 203 208 216 219 221 220
88 87 86 93 92 88 97 114 123 129 127 121 113 102 88 98 99 100 101 100 99 84 72 74 87 85 87 93 67 50 84 77 69 324 240 245 334 338 328 299 282 268 258 254 257 262 267 275 276 277 280 281 279 277 274 280 289 292 287 281 284 284 270 254 239 255 16 214 219 235 239 230 208 178 182 189 191 202 209 212 218 221 218 222 228
94 88 82 87 92 93 103 115 119 127 130 128 121 113 113 110 108 115 111 93 82 85 90 101 113 101 99 102 77 89 106 70 69 57 245 232 278 324 315 314 308 288 275 265 264 272 279 278 274 278 279 276 283 276 260 264 265 276 288 281 274 277 266 259 244 251 342 305 198 239 291 277 246 172 178 189 194 207 218 223 224 231 232 235 248
92 91 86 85 91 98 109 120 125 130 130 133 131 126 131 135 124 115 100 87 86 94 103 108 110 112 118 113 102 103 106 69 31 319 258 233 244 279 299 295 283 285 290 273 264 271 277 277 268 275 282 273 261 247 250 257 248 249 256 253 256 264 267 273 251 239 307 341 143 315 312 333 308 194 179 186 196 211 225 238 242 249 251 251 260
94 91 93 90 95 107 109 109 124 129 123 129 136 130 129 136 124 105 92 90 84 79 87 88 87 93 108 119 117 102 93 102 14 282 220 234 254 259 282 285 271 265 273 274 273 263 261 266 258 260 269 259 249 248 252 255 242 238 239 239 244 252 262 265 247 222 344 344 19 2 340 336 308 235 194 190 196 206 222 250 260 257 259 268 272
102 92 96 100 104 116 114 105 116 124 122 132 139 133 131 131 117 106 105 94 75 65 69 73 70 66 60 73 102 99 123 190 10 169 194 257 294 290 285 278 278 269 267 275 277 261 258 266 264 257 253 251 256 256 250 250 240 233 236 238 241 249 257 254 241 228 112 210 46 38 16 348 291 257 219 204 205 211 223 241 260 262 261 270 275
103 95 97 106 112 118 120 120 126 132 134 141 142 136 136 131 118 112 109 93 78 73 64 56 53 54 48 40 48 64 102 193 248 223 283 277 303 325 321 303 309 312 267 263 282 274 269 270 269 264 256 257 264 259 246 254 259 241 238 244 256 254 242 239 234 209 157 136 103 89 60 271 253 246 228 223 228 236 236 225 235 251 254 261 264
106 101 102 109 116 123 127 130 137 142 139 133 129 121 117 114 108 105 101 91 82 70 54 39 35 43 37 33 27 25 40 25 348 328 314 287 296 296 301 312 316 319 238 234 273 269 274 277 271 271 270 265 258 252 246 249 248 243 247 246 268 260 236 241 245 206 121 131 147 188 237 253 253 248 234 226 228 247 254 240 236 245 247 250 251
113 108 110 117 123 131 134 134 133 136 133 128 125 118 111 106 101 96 93 90 80 55 39 28 21 27 25 31 27 19 31 23 21 12 351 341 340 327 320 322 295 305 265 240 268 249 269 278 260 261 266 259 256 263 257 242 230 233 252 269 263 244 237 264 270 22 74 146 213 237 247 257 262 261 234 222 226 243 258 264 262 259 256 252 252
121 111 110 122 130 132 131 132 129 128 126 125 125 120 115 107 100 94 86 78 69 46 31 24 17 17 19 32 26 17 29 24 22 16 3 11 9 10 7 351 313 307 263 231 241 235 264 272 268 278 256 252 263 272 260 247 240 224 236 255 219 220 246 270 242 110 99 203 238 237 241 274 299 290 234 221 224 236 252 270 285 284 274 277 287
122 114 112 123 135 134 130 132 132 130 127 128 125 117 112 100 87 76 70 58 49 38 26 25 24 20 22 33 30 21 24 22 22 14 7 20 25 19 12 10 5 4 307 229 215 225 244 242 257 276 251 259 269 264 259 259 264 236 218 192 175 196 263 185 132 127 152 166 151 206 307 37 33 324 221 222 219 229 254 273 292 296 290 311 336
121 120 116 125 137 138 134 135 136 137 135 136 130 117 109 95 82 64 54 47 40 29 21 31 30 16 18 29 29 23 20 21 21 18 18 21 32 28 15 20 16 8 356 319 269 275 279 259 269 278 263 271 265 257 273 282 278 258 195 142 160 172 228 125 116 109 122 115 110 81 78 139 151 133 180 207 210 226 269 290 311 322 323 330 357
124 129 121 125 135 141 144 145 147 146 144 142 134 121 117 115 109 82 63 59 48 30 18 32 34 15 16 24 23 22 20 21 18 17 25 22 28 31 22 22 11 3 2 346 348 344 339 338 328 331 332 314 291 266 255 279 311 301 61 45 43 102 98 95 101 112 110 102 113 97 97 127 125 115 127 127 105 37 4 359 353 359 3 355 17
127 131 127 124 130 136 141 146 152 154 149 148 143 133 128 120 102 73 64 66 52 33 16 14 28 25 25 27 21 22 21 21 20 15 17 20 26 30 24 18 9 12 16 357 351 350 343 344 341 339 341 338 328 317 310 37 7 5 38 34 28 59 75 80 99 114 111 111 132 111 98 104 100 97 90 78 70 57 46 36 29 31 33 32 44
123 126 127 130 135 136 137 141 151 157 152 153 150 137 124 102 86 94 71 70 56 12 19 26 38 33 29 28 21 22 23 21 22 17 16 22 26 25 20 15 13 15 14 6 3 4 3 1 351 337 335 336 331 332 351 17 16 24 43 37 34 44 65 88 103 109 111 117 121 109 105 108 101 95 87 79 74 73 66 55 54 51 48 46 51
124 129 133 142 150 146 145 145 150 158 155 156 154 138 131 125 147 187 291 9 15 358 22 38 40 33 28 28 24 22 22 19 20 19 20 24 25 23 17 14 15 13 10 11 11 9 6 2 353 349 348 338 330 332 349 11 17 28 69 66 48 51 71 90 97 102 110 114 112 112 109 106 104 100 87 81 82 82 70 65 68 57 51 49 52
141 143 143 146 149 146 150 154 150 155 156 157 159 152 157 160 165 219 338 9 35 33 32 34 34 33 31 28 24 22 21 20 19 18 21 25 25 23 16 14 16 16 14 12 12 11 8 6 356 355 1 347 337 341 1 21 10 3 59 72 59 54 66 83 91 97 102 102 103 101 97 97 99 93 84 79 72 59 50 64 76 59 52 52 55
147 146 144 139 141 144 151 154 150 151 151 150 153 155 158 149 154 162 92 70 57 45 37 42 42 40 36 29 26 25 22 21 19 18 21 23 22 20 15 16 17 17 18 12 10 9 7 8 359 353 354 347 347 356 10 20 358 2 55 65 61 63 71 83 87 87 88 91 94 92 92 93 87 80 79 76 63 50 50 62 73 67 62 61 63
143 143 143 137 141 145 146 147 147 148 149 152 158 163 166 162 168 170 123 84 67 53 46 51 51 48 42 33 28 25 21 20 21 21 22 20 19 20 17 17 16 14 16 12 8 7 3 4 2 354 346 344 358 7 10 14 352 0 70 74 69 72 74 80 83 85 87 88 92 95 92 85 80 80 78 72 65 59 59 64 70 78 77 70 68
144 148 146 143 146 147 147 150 151 152 158 163 164 170 175 172 171 162 151 142 144 129 87 60 50 50 35 30 27 18 17 16 15 19 23 21 17 20 18 17 17 13 12 9 7 8 6 7 5 2 356 349 354 9 12 10 350 355 106 97 83 77 75 78 81 85 91 91 93 97 96 90 85 81 77 71 68 64 60 63 73 80 78 72 68
153 156 149 149 150 154 158 156 160 169 179 176 166 169 173 172 173 163 161 150 132 121 99 72 57 52 30 25 21 11 9 4 5 15 21 20 15 16 18 18 17 12 11 8 8 9 10 13 10 7 3 350 345 15 27 18 6 358 46 114 99 86 76 75 78 81 86 87 90 92 94 96 90 83 82 76 70 67 61 65 77 76 71 68 64
155 160 158 158 162 169 167 161 170 184 187 174 163 159 135 115 131 126 120 105 95 100 103 94 78 64 45 32 20 13 10 2 2 8 17 22 12 8 12 17 17 12 9 9 9 12 13 14 12 9 4 357 357 15 25 23 15 358 335 168 122 112 80 65 70 78 86 88 89 94 95 95 93 88 86 79 74 71 65 69 77 72 67 67 66
158 166 167 168 176 176 171 172 180 183 170 159 146 140 123 95 102 101 106 118 113 119 120 107 94 72 54 41 26 19 13 8 3 1 12 20 11 6 0 6 24 15 10 14 11 7 13 15 14 11 8 6 2 359 9 24 22 12 349 295 220 141 107 75 73 73 84 93 92 95 96 93 93 88 84 81 79 77 71 72 77 73 71 71 68
164 171 174 174 180 175 174 179 178 173 165 161 145 140 143 128 125 124 130 143 145 154 151 141 155 124 77 59 33 19 13 12 4 357 3 3 3 5 346 347 22 24 12 14 7 360 12 20 15 12 12 12 1 351 1 17 19 18 17 6 324 63 85 143 110 71 69 87 92 91 91 93 94 90 89 87 83 81 77 75 77 76 76 73 70
169 173 178 175 178 175 175 177 174 172 165 162 155 151 155 154 159 162 158 173 185 185 189 186 182 177 156 163 38 35 19 9 3 1 4 2 357 353 345 340 359 22 18 13 10 2 8 17 16 13 12 11 5 358 359 5 12 19 28 44 50 58 146 166 142 80 65 71 79 82 84 91 95 95 97 97 93 91 86 84 80 77 76 73 71
174 174 180 179 179 175 175 179 175 173 169 168 169 172 173 173 183 189 185 192 190 182 185 179 179 183 179 217 227 165 48 13 359 356 3 14 3 342 350 335 337 6 16 13 16 7 5 10 11 12 9 7 11 8 358 360 9 12 16 27 24 60 131 150 166 150 101 64 70 76 80 85 92 100 107 108 105 105 105 100 90 83 79 75 72
181 181 185 184 183 177 177 182 177 174 177 176 181 186 185 186 198 204 202 203 190 179 183 181 183 185 187 220 232 188 105 26 356 350 348 2 4 341 348 347 343 356 4 13 20 11 9 7 4 11 9 7 14 12 1 3 8 4 3 9 15 50 94 122 166 155 122 112 96 83 86 87 80 80 96 104 101 105 111 105 96 89 83 79 78
189 189 192 187 187 182 181 187 182 179 183 184 189 192 191 193 196 203 209 202 185 185 190 187 186 188 192 207 229 244 210 356 347 345 339 349 353 336 344 15 6 349 352 6 12 11 12 5 2 8 9 8 11 10 5 5 5 1 3 10 15 42 77 81 107 112 109 134 134 116 110 99 79 67 78 89 86 87 96 98 95 89 80 74 73
194 191 198 195 193 189 190 198 198 192 194 194 195 195 197 199 198 206 213 203 192 195 194 187 189 197 198 197 210 233 226 242 315 295 332 351 347 335 348 22 27 2 344 351 1 16 16 1 356 2 6 7 5 4 7 7 5 5 11 19 18 27 62 58 47 83 114 123 112 131 132 117 97 78 80 86 88 88 90 93 93 89 83 71 65
190 194 206 205 201 201 200 208 212 210 210 210 207 205 204 204 206 212 216 209 201 201 198 192 194 201 201 198 205 217 221 235 268 251 300 339 335 341 349 8 21 31 354 356 8 16 7 356 356 356 356 3 2 357 5 13 12 12 16 22 21 25 51 52 27 57 73 75 93 122 134 128 122 110 101 99 104 102 95 96 97 94 90 79 68